GFSSW_250_rhum_084.txt.gz
RH
58 69 60 43 34 27 23 21 27 66 72 87 96 91 98 82 82 61 40 35 35 38 48 85 83 41 25 23 22 21 19 19 19 21 22 22 24 24 18 14 13 15 14 55 100
93 80 62 61 46 33 25 25 41 35 63 73 76 95 85 91 76 66 47 43 43 37 45 90 77 48 33 28 25 26 25 26 24 25 22 24 25 25 18 15 17 18 35 99 100
66 60 72 68 58 36 29 25 26 38 51 69 74 97 92 90 92 77 60 45 59 63 35 64 67 50 34 29 32 32 32 35 26 28 21 25 29 34 24 18 21 28 99 100 100
85 83 77 60 50 40 30 25 22 25 37 66 79 85 85 96 100 92 73 55 48 68 46 44 56 46 40 38 36 38 33 44 40 28 27 25 29 63 32 22 26 49 100 100 100
77 97 97 73 66 45 33 34 31 27 28 43 85 96 89 98 98 98 100 67 56 90 66 52 43 48 48 45 41 40 42 57 59 30 31 28 30 80 32 22 30 100 84 100 100
64 74 100 95 74 66 51 41 40 32 32 38 79 98 100 92 98 100 100 86 62 81 87 60 52 49 54 50 43 43 48 80 67 45 46 27 29 80 41 22 32 77 88 97 100
77 58 61 92 78 67 62 60 51 31 34 42 56 86 91 100 100 89 88 78 79 96 98 70 67 52 47 47 46 53 55 99 75 58 48 33 26 58 47 22 37 51 98 82 100
71 49 60 92 86 73 86 70 60 37 38 37 46 93 94 100 100 100 90 97 96 77 97 90 79 59 54 57 48 57 91 93 66 70 59 41 28 50 55 28 22 50 100 77 94
36 37 59 83 98 82 81 76 66 59 40 41 48 55 100 100 99 92 90 100 100 90 79 95 92 90 74 75 53 49 51 88 65 71 61 44 28 39 60 38 26 34 71 100 67
25 32 42 88 88 91 75 56 58 60 37 35 65 87 94 100 100 82 87 80 98 84 66 100 98 94 99 82 71 60 45 71 85 81 65 48 29 38 56 45 26 24 61 97 100
22 27 46 64 64 63 69 76 51 49 38 38 78 99 96 97 100 100 76 100 94 81 74 100 100 100 100 98 100 74 54 94 100 83 66 51 28 47 42 60 27 24 23 68 100
22 27 40 56 67 54 62 61 49 42 43 42 90 100 100 87 95 100 100 95 97 100 86 74 96 100 100 85 100 96 64 82 100 100 75 45 32 31 27 65 58 27 25 32 48
26 27 38 41 49 53 57 56 47 37 46 66 66 100 100 91 74 100 100 100 100 99 100 91 100 100 97 82 100 100 80 53 100 97 95 58 36 35 29 46 75 28 26 27 37
27 29 31 37 48 51 57 58 57 49 65 100 74 100 100 83 86 100 80 100 88 85 100 81 100 100 99 88 85 90 68 61 83 100 100 83 47 34 37 38 90 34 26 27 39
26 31 32 35 41 51 62 63 63 69 56 82 100 99 100 100 100 98 86 100 100 100 84 89 100 100 64 77 58 94 57 60 60 100 100 94 69 49 39 41 94 46 28 28 43
24 28 27 34 48 59 61 67 67 75 72 56 97 100 100 100 100 100 100 100 100 100 95 96 100 100 100 92 71 80 51 68 57 99 100 100 91 59 48 46 87 61 31 26 37
19 22 26 30 41 50 56 59 53 45 71 91 99 92 94 100 100 80 96 100 100 100 100 100 100 100 100 100 86 82 88 64 66 97 100 100 100 72 53 48 76 83 42 30 28
14 16 21 26 29 35 38 45 34 43 45 99 100 97 100 100 100 100 100 100 100 100 100 100 100 100 100 100 100 93 78 51 93 96 100 100 100 78 63 54 51 98 85 43 26
15 15 18 20 22 26 26 24 49 47 41 63 90 85 100 100 100 100 100 100 100 100 100 100 100 100 100 100 99 99 100 100 99 66 88 100 100 74 81 58 50 53 100 54 31
14 16 18 16 20 20 20 23 37 48 43 70 81 82 100 100 100 100 100 100 100 100 96 84 92 100 100 100 93 70 90 94 82 63 95 100 100 100 87 66 63 54 75 80 40
11 13 20 18 18 18 20 22 31 43 53 62 98 84 95 100 93 100 100 100 100 100 100 100 100 100 100 100 100 100 90 92 99 72 100 100 100 100 92 80 64 80 61 100 69
8 11 18 16 17 22 21 20 20 32 71 74 75 80 83 75 88 94 83 89 98 99 100 100 100 100 97 100 100 100 95 100 77 59 70 76 100 100 100 95 72 87 99 100 89
6 8 12 12 17 20 23 23 25 30 37 56 80 83 87 62 62 75 88 100 100 95 83 99 100 100 100 100 97 98 100 98 72 68 58 100 100 100 100 100 71 66 88 100 100
6 7 8 12 16 16 24 27 28 31 30 29 32 47 56 48 44 57 71 70 90 100 88 84 74 87 100 100 100 76 79 100 100 100 100 100 100 100 100 100 100 71 59 87 100
5 6 8 11 17 22 24 30 32 31 28 27 24 24 23 23 24 36 44 45 49 56 81 82 80 63 67 93 100 100 100 100 100 100 100 100 100 100 100 94 94 73 42 51 94
6 8 9 11 16 18 21 27 34 36 31 25 25 25 19 24 24 23 22 24 28 28 37 60 76 72 72 100 100 100 100 100 100 100 100 100 100 100 100 98 90 85 58 58 91
7 8 9 12 13 16 20 28 32 29 26 26 24 26 24 27 21 24 22 18 29 27 21 25 43 65 68 77 74 97 100 100 100 100 100 100 100 100 100 100 93 73 74 57 88

GFSSW_250_rhum_090.txt.gz
RH
100 100 100 100 81 79 60 50 45 31 40 36 36 31 29 42 36 34 24 23 69 100 100 100 99 90 83 44 37 31 34 42 35 35 39 37 27 36 34 28 29 19 19 15 18
100 100 94 90 80 72 68 64 53 63 49 48 43 34 30 30 36 42 37 23 26 69 100 97 95 100 90 57 40 39 29 37 36 40 42 38 34 44 31 36 35 22 21 17 31
100 98 99 87 84 79 62 77 72 76 64 57 52 40 35 31 31 32 42 37 28 37 82 100 100 95 94 71 47 47 32 38 30 39 42 40 36 46 37 32 39 25 22 19 67
100 100 100 100 95 88 85 99 100 80 69 64 47 44 34 30 30 28 32 44 38 43 56 95 100 100 100 93 65 53 46 42 39 40 45 43 32 34 44 30 43 29 28 20 76
100 100 100 91 99 96 100 98 93 83 76 63 57 48 40 32 35 34 30 37 44 42 67 90 100 100 100 100 90 56 61 52 52 44 49 49 37 30 35 30 39 29 37 19 84
100 100 100 100 100 100 100 100 100 95 86 68 57 47 42 38 37 35 36 52 45 47 36 100 100 100 100 100 100 74 66 63 50 48 46 50 45 39 38 33 34 29 40 21 51
100 100 100 100 100 99 91 96 82 90 79 68 53 50 46 44 37 34 41 56 64 51 35 89 100 100 100 97 100 82 75 66 57 63 51 53 51 47 46 32 33 32 32 28 21
100 100 100 100 100 100 99 90 99 89 70 56 43 41 39 42 36 30 44 69 74 58 34 49 89 100 100 100 100 100 89 74 57 77 66 62 56 54 49 40 36 39 36 28 21
100 100 100 100 100 100 100 94 78 66 57 48 44 36 37 37 36 33 68 71 86 69 48 39 59 91 100 100 100 100 91 74 92 86 75 76 72 61 44 50 48 49 37 29 22
100 100 100 100 100 100 100 80 78 61 62 59 40 34 28 30 36 40 89 89 99 97 71 45 61 70 89 100 100 100 93 95 100 94 87 99 92 68 41 48 74 57 47 41 25
84 88 94 100 97 100 85 72 63 62 53 44 36 29 28 25 32 33 86 87 100 98 81 60 44 85 100 100 100 100 100 100 100 77 96 88 100 72 42 47 77 66 49 39 24
73 70 79 71 85 77 72 61 46 43 38 36 28 22 22 22 28 38 90 94 92 96 75 62 42 67 100 100 100 100 100 100 100 88 94 100 100 69 50 48 85 65 51 38 30
72 64 62 68 72 58 51 52 39 32 26 29 21 20 20 21 28 49 77 100 100 100 79 62 54 60 92 100 100 100 99 100 100 91 100 100 100 72 57 62 67 82 59 50 36
73 60 52 52 50 49 47 42 32 27 22 21 22 17 21 23 30 66 90 93 99 88 71 63 62 84 95 100 100 100 100 94 100 76 91 100 100 75 64 64 66 86 62 60 41
76 42 43 40 53 40 39 32 28 23 17 21 24 20 21 34 47 77 89 78 95 85 77 62 100 92 90 100 100 100 99 86 100 100 100 100 100 82 71 68 88 92 66 73 54
33 28 29 30 29 24 26 23 22 21 19 22 25 25 29 37 60 60 83 76 86 77 64 58 87 100 91 94 100 100 100 98 100 89 100 100 100 91 71 79 86 93 68 86 68
23 24 24 24 23 24 22 20 21 21 24 22 27 35 48 41 59 63 84 77 79 79 61 60 84 100 99 100 93 100 100 100 100 94 100 100 83 84 74 91 99 92 60 91 76
18 19 22 25 20 23 21 18 19 21 21 22 28 40 60 53 59 81 75 84 85 93 89 75 97 100 100 99 92 93 100 96 96 99 100 96 80 99 77 100 100 85 54 77 90
13 14 15 16 16 16 14 13 15 16 19 22 26 40 82 64 71 95 86 86 94 92 97 98 98 100 100 100 93 92 100 100 88 99 100 100 96 100 81 96 100 100 78 98 95
9 10 11 10 11 10 10 12 12 15 17 18 21 35 63 70 89 91 93 88 100 96 94 100 100 100 100 100 92 98 100 100 71 96 92 100 100 100 100 98 100 100 96 95 100
8 9 8 9 9 11 12 13 13 16 17 18 18 32 43 84 88 92 100 89 95 100 94 100 100 100 100 100 98 90 95 92 92 100 100 100 100 100 100 97 97 100 89 72 100
6 7 7 7 8 9 10 11 13 16 18 19 18 27 36 56 98 80 100 98 85 95 98 81 100 100 100 100 100 100 96 100 100 100 100 77 100 100 100 100 96 83 64 77 100
6 7 7 7 8 8 9 10 12 15 17 18 18 23 31 44 96 90 96 91 100 87 88 96 100 100 100 100 100 100 96 98 100 99 72 86 82 100 100 100 100 100 100 92 100
6 7 7 7 8 8 9 10 12 14 16 17 18 21 27 37 78 97 95 88 100 98 96 100 100 100 100 92 98 100 100 100 100 96 86 60 95 97 100 100 100 97 100 93 99
6 8 7 8 7 7 7 8 9 13 15 18 19 20 23 29 39 83 87 91 76 100 100 100 98 80 100 100 98 87 100 100 100 96 62 63 44 65 88 100 100 99 98 89 77
8 8 6 7 7 7 7 9 8 10 13 17 21 18 19 25 29 46 77 76 73 91 99 100 100 100 99 88 100 100 99 74 82 91 77 68 59 51 55 89 100 100 82 100 100
8 6 6 6 6 6 7 9 9 8 11 15 18 17 18 20 24 30 53 74 87 80 77 89 95 99 100 100 100 100 100 100 100 100 66 52 48 58 75 65 98 100 100 82 99

GFSSW_250_rhum_096.txt.gz
RH
100 100 91 80 73 65 45 42 54 53 41 40 72 100 100 100 85 54 36 37 38 34 34 26 22 34 32 26 32 96 70 92 92 80 92 69 44 38 28 27 25 24 28 31 23
98 82 90 73 57 54 50 66 57 48 48 79 100 100 100 95 79 58 53 46 41 43 34 27 33 35 36 32 25 61 100 100 100 96 100 88 57 43 32 31 31 28 28 32 27
100 100 100 100 100 99 88 66 54 55 54 76 100 100 95 83 88 70 64 52 64 57 52 55 39 49 40 35 30 26 51 96 100 64 90 94 85 55 41 39 32 35 36 36 26
96 78 100 100 100 100 89 92 100 82 96 100 100 95 98 100 100 90 75 74 72 91 79 63 64 46 42 40 35 28 30 59 100 93 100 98 100 76 55 50 41 39 43 46 30
98 100 100 100 100 98 100 100 100 100 100 100 100 100 100 100 100 93 100 89 92 91 84 53 72 42 34 42 41 32 32 35 64 96 99 100 100 89 65 59 49 49 52 49 34
41 48 55 76 91 100 95 84 86 90 100 100 100 100 100 100 100 98 96 98 100 100 100 95 78 54 34 38 32 36 34 46 95 100 100 100 100 100 76 69 50 59 62 54 33
40 43 47 48 60 71 67 82 100 95 99 100 100 100 100 100 100 100 100 98 90 92 100 94 82 64 49 36 33 39 33 39 66 100 61 77 100 100 66 74 59 54 64 58 42
74 65 66 61 57 60 53 61 94 96 100 100 100 100 100 100 100 100 100 100 100 100 100 100 98 77 43 53 41 44 32 36 52 56 94 100 91 100 59 96 64 53 73 69 52
100 100 100 100 98 90 83 77 71 71 93 100 100 98 92 100 100 100 100 100 100 100 100 100 99 92 77 46 37 47 38 44 43 44 90 100 100 100 90 99 68 54 57 63 64
98 100 100 100 100 100 100 100 80 84 73 84 99 100 100 100 100 100 100 100 100 100 100 99 83 70 49 43 46 50 43 41 41 59 76 97 100 100 98 90 99 94 53 95 83
93 100 100 100 97 100 100 100 100 76 82 98 68 72 100 100 100 100 100 100 100 100 100 85 57 81 88 56 52 45 36 38 48 50 99 77 100 100 93 91 98 100 45 100 63
78 86 79 91 89 96 99 100 99 75 76 90 77 77 87 80 100 100 100 100 100 100 100 73 65 86 63 49 48 36 34 41 54 50 98 80 96 100 100 100 100 100 99 100 46
57 66 66 64 62 58 70 96 81 66 85 100 92 71 86 100 99 95 85 85 84 75 71 52 57 55 52 37 33 30 33 55 66 63 79 77 94 100 100 100 99 100 100 94 54
43 42 45 50 52 56 54 59 70 65 73 87 88 71 79 68 96 100 88 68 63 62 72 59 47 44 40 33 32 26 61 71 83 86 74 90 84 100 100 100 88 100 100 96 73
30 31 34 38 41 43 47 52 51 62 51 62 74 100 93 92 96 93 90 93 81 73 66 53 49 39 29 29 26 27 77 76 90 96 70 82 60 76 100 100 93 100 100 84 64
19 17 18 17 18 21 24 33 34 33 32 59 51 72 100 100 100 84 96 85 80 66 54 42 47 33 27 22 25 39 78 79 93 94 71 95 67 68 100 95 90 88 100 90 77
9 11 12 14 17 17 17 16 18 18 27 42 38 49 82 100 100 95 85 85 88 79 52 48 40 29 21 21 31 38 100 88 89 75 77 92 64 63 100 95 92 89 100 100 86
6 6 7 7 7 9 12 15 13 18 23 26 27 16 33 73 70 91 90 68 68 59 58 47 31 26 22 27 34 38 90 98 96 84 75 73 62 64 100 100 95 82 100 100 54
5 5 6 6 6 6 6 7 12 18 20 17 17 18 31 56 55 58 65 43 48 53 47 32 29 26 22 32 30 52 88 100 87 87 82 80 86 75 100 100 100 100 100 100 49
3 3 4 5 5 6 6 7 9 11 10 14 19 20 22 27 29 31 36 32 33 43 37 28 24 28 31 43 56 80 100 92 74 86 80 97 91 95 100 100 100 100 100 100 69
3 3 3 4 4 5 6 8 8 8 6 11 14 17 21 24 24 28 29 26 28 36 30 28 30 31 38 42 77 88 94 97 84 87 83 95 100 71 97 100 100 100 99 92 100
3 3 3 3 3 4 6 7 8 8 8 11 12 14 15 20 24 23 32 21 27 33 28 29 31 36 51 65 86 100 100 88 80 80 81 89 100 100 100 100 100 100 93 56 100
3 3 3 3 4 4 5 6 7 7 8 12 11 11 13 16 20 20 25 22 32 29 27 34 34 36 58 88 100 100 93 78 76 78 72 83 100 100 89 100 100 100 74 59 99
3 3 3 3 4 4 5 5 6 7 8 9 11 10 10 11 15 16 18 21 27 26 28 31 32 44 68 71 94 99 83 92 93 97 96 93 100 100 100 100 100 100 92 100 80
3 3 3 3 4 4 4 5 5 6 7 8 9 10 10 11 10 11 14 17 24 25 27 28 30 44 68 80 88 100 100 92 90 99 100 100 96 100 99 94 100 100 99 100 100
3 3 3 3 4 4 4 4 4 5 6 7 8 8 8 9 10 12 13 14 19 18 21 25 31 47 77 86 100 91 100 100 95 98 99 100 100 100 100 100 100 100 100 100 100
3 3 3 4 4 4 4 4 4 5 6 7 7 8 9 10 8 9 8 14 20 19 25 30 44 55 86 69 81 100 100 100 95 91 97 99 100 100 100 99 100 100 100 100 100

GFSSW_250_rhum_102.txt.gz
RH
95 100 100 100 100 100 100 100 100 100 100 94 99 90 96 100 100 96 83 64 52 42 36 32 30 26 93 100 83 49 36 39 34 32 28 31 30 25 43 94 74 75 79 65 48
100 94 100 100 100 100 100 100 100 100 100 100 92 99 77 79 83 83 76 62 46 40 40 30 28 30 98 98 62 58 50 45 36 34 25 27 29 30 28 41 90 100 73 68 59
65 86 100 100 98 88 91 100 100 97 91 98 96 100 88 82 78 63 61 52 44 40 41 36 36 40 92 96 58 76 66 51 44 34 27 28 41 41 32 27 34 65 72 60 83
76 53 78 97 100 99 98 98 87 100 100 100 99 94 90 78 74 59 49 48 57 56 44 38 37 45 74 81 100 100 74 61 42 34 35 61 66 40 41 32 23 40 76 91 100
69 78 65 67 91 99 100 100 100 100 96 98 100 100 100 100 100 90 95 79 100 87 70 46 35 59 86 98 90 100 79 55 42 44 49 47 81 33 59 38 24 24 47 78 100
50 74 70 68 64 69 86 92 100 99 97 100 100 100 100 100 89 92 100 100 98 81 68 82 54 57 75 100 100 100 88 78 54 55 87 93 39 39 88 47 37 31 38 72 97
75 69 65 72 64 75 77 67 70 69 69 60 66 83 100 100 100 91 88 100 100 100 100 100 100 100 100 100 100 100 85 76 97 99 80 83 36 54 84 45 38 34 52 68 98
99 87 82 64 83 83 64 84 77 74 64 52 47 44 46 79 91 97 91 100 99 99 100 100 100 100 100 100 100 100 100 100 100 94 96 67 43 72 62 43 53 37 43 68 80
99 100 100 100 100 87 94 79 72 80 76 76 85 50 50 51 57 56 53 50 50 70 81 93 100 100 100 99 100 100 100 98 94 100 87 77 42 55 49 62 56 42 38 62 80
100 100 100 88 88 97 79 90 98 85 94 81 63 63 90 71 63 64 52 40 40 53 47 68 83 85 97 100 100 100 94 80 81 98 71 60 42 46 67 74 52 48 44 44 73
96 89 96 99 86 86 69 64 71 78 100 100 98 85 69 89 97 88 93 58 59 39 44 47 57 56 74 92 93 87 82 94 98 84 66 62 58 61 65 68 43 43 47 52 67
100 100 100 100 97 81 77 84 62 55 63 65 87 92 87 91 80 100 78 61 81 54 54 46 42 62 57 61 76 74 81 80 77 99 73 77 69 87 81 54 44 39 56 80 87
98 100 97 98 88 82 64 62 56 53 42 55 52 63 77 71 72 94 84 67 79 62 53 59 46 46 50 56 65 71 81 85 91 99 74 63 72 100 72 53 42 47 81 98 97
88 90 81 72 76 72 46 43 43 47 24 46 61 60 69 91 64 88 93 62 62 63 70 49 58 50 51 44 53 67 82 83 100 100 100 100 74 76 54 50 36 50 96 85 100
84 90 82 73 72 53 38 43 37 27 11 29 47 58 57 82 66 84 100 61 76 95 81 50 72 54 52 50 52 59 52 49 49 45 45 52 60 61 52 47 33 55 100 97 100
84 87 60 48 38 20 25 23 16 13 11 16 22 31 30 38 50 51 52 74 71 75 69 77 83 76 64 65 61 62 56 52 48 49 50 81 58 55 62 38 30 53 98 100 83
45 40 32 26 25 16 17 17 12 9 11 16 16 16 18 24 34 46 54 53 54 60 54 75 62 57 59 59 67 67 62 58 51 55 73 92 45 58 66 29 34 87 85 100 87
32 25 19 13 11 8 8 7 5 6 8 6 5 8 11 19 23 28 32 36 37 46 52 52 48 48 54 57 76 69 62 55 52 62 80 60 52 76 42 30 58 100 99 100 100
14 10 8 8 8 7 7 7 6 5 6 6 6 6 4 6 10 14 20 25 27 27 29 27 26 36 41 52 64 71 50 74 69 59 58 57 72 61 35 44 90 100 77 100 100
11 10 9 7 6 5 5 5 4 4 4 5 5 5 5 6 7 7 8 13 18 19 19 20 26 36 47 44 47 49 73 68 62 76 78 67 69 41 30 56 100 100 80 93 87
11 8 6 4 4 4 4 3 3 3 3 4 4 4 5 6 8 8 8 9 10 14 18 20 23 28 29 32 47 50 56 61 65 60 62 69 69 37 30 87 100 100 73 67 80
8 6 4 4 3 4 3 3 3 2 3 3 4 4 4 4 6 8 8 9 10 10 12 14 20 25 24 34 39 39 54 66 52 58 62 59 59 35 46 100 100 100 98 62 63
7 5 4 4 4 4 3 3 3 3 3 3 4 4 5 5 5 7 8 10 10 10 9 11 15 20 24 24 29 24 29 41 47 57 58 55 41 40 71 100 100 100 100 79 83
6 5 5 4 4 4 4 4 3 3 4 4 4 4 4 4 5 6 8 9 12 13 14 13 15 18 23 26 31 30 35 46 44 39 45 42 45 53 91 100 100 100 100 95 98
6 7 6 5 4 5 4 4 4 3 4 4 4 4 4 4 4 5 7 8 10 17 15 14 13 20 30 33 23 26 27 28 32 42 45 63 56 77 98 100 100 100 100 100 83
8 8 6 5 5 4 4 4 4 4 4 4 4 4 4 5 6 7 8 9 12 17 15 14 13 26 37 34 26 32 31 37 42 43 56 86 90 79 100 100 100 96 100 100 100
8 8 6 5 6 5 4 4 4 4 5 5 4 4 4 5 7 7 9 11 14 17 13 12 15 26 34 37 31 37 40 36 39 42 58 79 88 100 100 100 100 100 100 100 100

GFSSW_250_rhum_105.txt.gz
RH
62 94 100 100 100 100 100 100 100 100 100 100 100 100 100 100 100 100 100 100 100 100 100 100 93 73 58 48 40 34 28 36 95 89 54 41 46 38 26 24 26 26 26 42 84
65 61 72 87 97 100 100 100 100 100 100 100 100 100 100 100 100 100 100 99 100 100 100 100 100 95 68 56 45 32 23 43 81 97 73 69 58 44 28 24 31 32 25 21 30
82 95 74 60 65 77 94 100 100 100 100 100 98 97 100 100 100 100 100 100 100 100 100 96 84 74 64 55 41 34 26 37 97 83 91 98 66 43 32 27 39 31 33 35 30
58 82 100 94 60 67 70 70 84 99 100 100 100 100 100 100 100 100 100 100 100 98 94 93 80 70 54 44 38 31 35 32 67 89 99 100 86 60 36 37 26 29 34 36 35
74 72 59 100 74 71 64 65 68 73 75 100 100 100 100 100 100 89 100 100 100 90 81 80 61 54 50 42 39 43 38 32 44 77 99 100 100 61 50 42 34 41 38 46 32
92 98 81 66 81 96 82 65 63 58 69 59 82 100 100 100 100 100 100 100 100 100 89 76 68 46 46 72 77 60 40 33 31 50 73 97 82 55 86 52 47 51 44 49 40
100 100 91 94 100 82 91 100 56 62 98 56 59 52 90 100 100 100 100 100 100 100 100 100 100 100 100 100 89 75 55 41 56 98 100 97 76 86 64 53 57 47 43 47 66
76 62 92 100 82 100 64 84 97 77 100 69 82 47 62 76 88 100 100 100 100 100 100 100 100 98 65 100 100 100 96 80 98 100 100 92 83 95 68 45 51 46 43 53 85
51 65 72 100 100 100 93 91 100 80 95 94 70 77 83 76 74 76 82 92 88 84 92 97 97 100 96 99 87 95 100 100 100 100 100 81 65 100 71 49 51 52 41 76 96
75 67 69 92 100 100 100 100 68 91 83 99 80 84 69 74 66 58 65 73 73 63 58 55 50 59 80 84 76 78 86 93 100 100 87 94 76 72 74 54 47 45 42 99 100
63 84 91 100 100 73 82 71 91 69 70 68 84 86 69 66 56 56 79 57 63 66 78 69 48 39 46 50 50 43 41 50 76 85 87 83 62 62 56 51 49 41 76 100 100
84 100 100 89 98 77 70 71 76 65 86 87 93 79 87 84 53 58 69 76 79 72 61 56 54 51 51 46 42 39 38 43 59 63 67 68 61 67 62 62 52 39 64 100 94
81 98 99 100 90 72 85 79 75 74 54 83 93 65 89 83 58 78 51 65 86 92 85 66 61 54 56 55 46 47 44 49 52 58 50 58 54 62 67 58 51 62 93 100 92
92 88 74 72 78 61 78 67 55 43 25 48 91 92 78 49 31 91 88 51 65 73 85 57 55 60 81 88 74 44 69 72 60 48 42 42 36 43 50 85 77 98 92 74 68
74 85 72 55 63 55 61 50 36 36 10 28 54 35 23 47 41 51 95 66 55 79 78 53 67 72 75 79 77 55 47 47 53 56 50 50 41 59 65 78 90 60 53 52 65
69 71 60 53 46 44 40 32 26 19 12 18 28 18 20 29 45 57 74 93 68 64 65 66 74 94 81 99 100 98 69 58 65 64 57 58 48 65 76 71 53 52 55 79 47
66 55 42 39 39 28 22 22 20 17 16 12 13 13 14 15 23 30 36 45 45 41 38 88 94 100 100 93 94 80 89 88 78 67 58 69 58 58 53 59 56 62 76 68 43
50 40 37 31 22 18 15 11 9 8 6 5 4 6 5 6 11 18 21 24 30 34 29 32 37 53 85 97 100 100 100 98 65 66 75 66 43 54 58 75 67 70 76 64 34
46 33 26 17 12 11 10 10 9 7 6 5 5 5 5 5 6 6 8 14 19 20 18 18 22 39 59 94 95 100 100 100 82 76 68 52 46 58 72 81 74 74 72 47 30
34 20 16 12 12 13 10 7 6 5 4 4 4 4 4 6 7 8 8 8 8 12 14 17 22 27 37 41 48 68 88 78 58 58 59 58 57 70 85 93 76 72 57 38 52
19 15 15 13 14 10 8 5 4 3 3 3 3 3 4 5 6 7 8 8 8 8 8 10 14 23 27 27 43 59 58 47 49 50 54 62 76 98 93 87 72 70 51 40 94
18 16 13 14 10 8 5 4 3 3 3 3 3 3 4 4 6 6 7 6 7 8 8 9 9 18 22 25 29 30 35 36 36 45 56 74 94 100 74 69 77 70 38 48 100
22 15 15 11 7 6 6 4 3 4 3 3 3 3 4 4 4 5 5 6 8 8 8 10 12 14 14 15 20 24 29 35 36 44 54 76 80 98 70 77 89 67 47 98 100
22 17 14 9 6 6 6 4 4 4 4 4 4 4 4 4 4 5 5 6 7 6 8 11 14 14 12 12 15 20 25 31 32 34 41 62 77 79 78 71 74 56 97 100 100
20 16 13 8 7 6 7 4 4 4 5 4 4 4 4 4 4 5 5 6 7 6 9 12 15 16 13 13 14 20 26 30 35 39 43 52 48 55 61 71 60 63 100 100 100
20 16 14 8 7 7 6 5 5 5 5 4 4 4 4 5 6 6 6 7 8 9 11 15 15 15 14 15 17 22 24 28 31 34 38 40 45 48 68 59 53 96 100 100 100
15 16 14 9 8 7 6 6 5 5 5 4 4 4 4 4 6 8 7 8 9 11 12 15 15 14 11 13 17 24 26 27 30 32 32 31 40 46 58 74 79 100 100 100 100